Location: Zagreb
(45.8000°N, 16.0000°E)
Time: 09:19:49
(UTC+01:00)

BlueWalker 3 - Pass Details

Date: 07 December 2022
Orbit: 499 x 517 km, 53.2° (Epoch: 01 February)

Event Time Altitude Azimuth Distance (km) Brightness Sun altitude
Rises 18:47:55 0° 301° (WNW) 2,625 6.4 -26.3°
Reaches altitude 10° 18:50:08 10° 299° (WNW) 1,732 5.3 -26.7°
Enters shadow 18:52:31 35° 293° (WNW) 839 3.4 -27.1°
